FW0827 Weather Reports


Display with metric or nautical units.
time (UTC)temp
F
wind
direction
speed
MPH
gust
MPH
rain 1hr
in
rain 24hr
in
rain mn
in
humidity
%
barometer
mb
20260503203703 58 217 0.0 5.0 0.00 0.00 0.00 39 1012.4
20260503203616 59 209 0.0 5.0 0.00 0.00 0.00 39 1029.0
20260503203114 59 342 0.0 3.0 0.00 0.00 0.00 42 1029.2
20260503202703 58 322 0.0 5.0 0.00 0.00 0.00 42 1012.4
20260503202611 59 341 0.0 2.0 0.00 0.00 0.00 41 1029.1
20260503202203 58 307 1.0 9.0 0.00 0.00 0.00 42 1012.6
20260503202109 58 307 0.0 8.0 0.00 0.00 0.00 42 1029.3
20260503201703 58 326 4.0 14.0 0.00 0.00 0.00 40 1012.6
20260503201607 59 329 7.0 10.0 0.00 0.00 0.00 40 1029.3
20260503201203 59 134 5.0 14.0 0.00 0.00 0.00 40 1012.5
20260503201104 59 134 8.0 14.0 0.00 0.00 0.00 40 1029.2
20260503200703 59 301 0.0 9.0 0.00 0.00 0.00 39 1012.8
20260503200600 59 295 0.0 2.0 0.00 0.00 0.00 38 1029.5
20260503200203 59 267 2.0 12.0 0.00 0.00 0.00 41 1012.7
20260503200056 59 237 1.0 11.0 0.00 0.00 0.00 41 1029.3
20260503195548 59 215 0.0 7.0 0.00 0.00 0.00 40 1029.5
20260503195203 58 314 1.0 12.0 0.00 0.00 0.00 41 1012.9
20260503195044 58 296 2.0 7.0 0.00 0.00 0.00 41 1029.6
20260503194703 58 301 1.0 12.0 0.00 0.00 0.00 39 1012.8
20260503194542 58 251 1.0 3.0 0.00 0.00 0.00 39 1029.4
20260503194203 60 335 2.0 9.0 0.00 0.00 0.00 41 1013.0
20260503194041 60 355 2.0 7.0 0.00 0.00 0.00 41 1029.8
20260503193703 60 259 1.0 9.0 0.00 0.00 0.00 40 1012.8
20260503193539 60 257 0.0 0.0 0.00 0.00 0.00 39 1029.4
20260503193203 58 307 1.0 16.0 0.00 0.00 0.00 41 1013.0
20260503193039 58 325 1.0 8.0 0.00 0.00 0.00 41 1029.7
20260503192703 59 203 2.0 16.0 0.00 0.00 0.00 49 1013.1
20260503192535 59 213 1.0 5.0 0.00 0.00 0.00 41 1029.8
20260503192203 57 306 1.0 14.0 0.00 0.00 0.00 44 1012.9
20260503192031 57 315 0.0 5.0 0.00 0.00 0.00 45 1029.6
20260503191703 58 189 1.0 9.0 0.00 0.00 0.00 40 1013.2
20260503191528 58 180 2.0 5.0 0.00 0.00 0.00 40 1029.9
20260503191203 58 246 2.0 9.0 0.00 0.00 0.00 43 1013.3
20260503191025 57 313 0.0 2.0 0.00 0.00 0.00 44 1029.8
20260503190704 56 323 2.0 14.0 0.00 0.00 0.00 45 1013.2
20260503190522 57 330 7.0 14.0 0.00 0.00 0.00 40 1029.7
20260503190203 58 294 3.0 12.0 0.00 0.00 0.00 43 1013.3
20260503190019 57 256 2.0 7.0 0.00 0.00 0.00 43 1029.8
20260503185703 55 283 3.0 13.0 0.00 0.00 0.00 46 1013.2
20260503185515 55 353 9.0 13.0 0.00 0.00 0.00 45 1029.9
20260503185203 55 303 2.0 12.0 0.00 0.00 0.00 45 1013.4
20260503185010 55 7 1.0 10.0 0.00 0.00 0.00 45 1030.1
20260503184703 55 356 1.0 20.0 0.00 0.00 0.00 42 1013.4
20260503184506 55 270 0.0 19.0 0.00 0.00 0.00 44 1030.1
20260503184204 56 326 6.0 9.0 0.00 0.00 0.00 43 1013.4
20260503184002 57 349 8.0 10.0 0.00 0.00 0.00 43 1030.3
20260503183704 57 208 2.0 13.0 0.00 0.00 0.00 47 1013.4
20260503183459 56 317 1.0 3.0 0.00 0.00 0.00 44 1030.1
20260503183203 56 326 3.0 13.0 0.00 0.00 0.00 43 1013.5
20260503182955 56 314 2.0 13.0 0.00 0.00 0.00 43 1030.0
20260503182704 58 248 0.0 9.0 0.00 0.00 0.00 46 1013.4
20260503182450 57 24 0.0 7.0 0.00 0.00 0.00 50 1030.1
20260503181947 55 316 2.0 3.0 0.00 0.00 0.00 48 1030.2
20260503181703 55 320 1.0 17.0 0.00 0.00 0.00 46 1013.5
20260503181444 55 303 1.0 5.0 0.00 0.00 0.00 47 1030.3
20260503181203 56 0 2.0 17.0 0.00 0.00 0.00 43 1013.6
20260503180939 56 324 1.0 7.0 0.00 0.00 0.00 45 1030.5
20260503180703 55 330 0.0 13.0 0.00 0.00 0.00 46 1013.6
20260503180438 55 314 0.0 8.0 0.00 0.00 0.00 46 1030.5
20260503175934 54 333 3.0 10.0 0.00 0.00 0.00 48 1030.3
20260503175703 54 329 7.0 21.0 0.00 0.00 0.00 42 1013.6
20260503175433 54 333 10.0 18.0 0.00 0.00 0.00 45 1030.3
20260503175203 55 318 3.0 17.0 0.00 0.00 0.00 44 1013.5
20260503174928 55 301 3.0 18.0 0.00 0.00 0.00 43 1030.4
20260503174704 56 342 1.0 20.0 0.00 0.00 0.00 46 1013.5
20260503174426 56 340 6.0 14.0 0.00 0.00 0.00 46 1030.5
20260503174204 56 308 9.0 21.0 0.00 0.00 0.00 42 1013.7
20260503173926 56 326 9.0 14.0 0.00 0.00 0.00 44 1030.4
20260503173703 56 236 3.0 12.0 0.00 0.00 0.00 42 1013.4
20260503173423 56 181 1.0 7.0 0.00 0.00 0.00 45 1030.4
20260503172920 55 316 7.0 16.0 0.00 0.00 0.00 41 1030.6
20260503172705 55 331 5.0 20.0 0.00 0.00 0.00 45 1013.6
20260503172417 55 295 10.0 16.0 0.00 0.00 0.00 44 1030.7
20260503171913 55 349 6.0 8.0 0.00 0.00 0.00 44 1030.7
20260503171703 54 331 6.0 16.0 0.00 0.00 0.00 44 1013.9
20260503171410 54 191 1.0 11.0 0.00 0.00 0.00 41 1030.5
20260503171204 54 13 6.0 21.0 0.00 0.00 0.00 45 1014.0
20260503170908 54 317 7.0 21.0 0.00 0.00 0.00 47 1030.3
20260503170703 54 295 1.0 16.0 0.00 0.00 0.00 44 1014.0
20260503170404 54 345 4.0 14.0 0.00 0.00 0.00 43 1030.4
20260503170204 54 328 5.0 20.0 0.00 0.00 0.00 45 1013.9
20260503160203 54 326 5.0 17.0 0.00 0.00 0.00 49 1014.3
20260503150756 51 271 0.0 8.0 0.00 0.00 0.00 51 1031.3
20260503150703 50 289 1.0 8.0 0.00 0.00 0.00 58 1014.4
20260503150252 49 7 0.0 2.0 0.00 0.00 0.00 57 1031.4
20260503150204 48 277 0.0 13.0 0.00 0.00 0.00 57 1014.7
20260503140217 48 341 4.0 7.0 0.00 0.00 0.00 61 1031.4
20260503131203 47 310 1.0 9.0 0.00 0.00 0.00 64 1014.4
20260503131146 47 278 0.0 0.0 0.00 0.00 0.00 63 1031.2
20260503130704 49 20 5.0 9.0 0.00 0.00 0.00 62 1014.4
20260503130643 49 354 5.0 10.0 0.00 0.00 0.00 61 1031.1
20260503130204 47 288 5.0 13.0 0.00 0.00 0.00 62 1014.5
20260503130141 47 288 0.0 8.0 0.00 0.00 0.00 63 1031.1
20260503120203 45 337 1.0 13.0 0.00 0.00 0.00 66 1014.3
20260503120106 45 325 2.0 5.0 0.00 0.00 0.00 65 1031.0
20260503110703 43 315 2.0 7.0 0.00 0.00 0.00 74 1013.5
20260503110533 43 314 0.0 7.0 0.00 0.00 0.00 74 1030.2
20260503110203 42 301 1.0 8.0 0.00 0.00 0.00 74 1013.4
20260503100203 41 302 0.0 7.0 0.00 0.00 0.00 79 1012.7
20260503090420 41 313 0.0 0.0 0.00 0.00 0.00 84 1028.9
20260503090203 41 303 0.0 1.0 0.00 0.00 0.00 84 1012.3
20260503081341 39 300 0.0 0.0 0.00 0.00 0.00 87 1028.5
20260503080838 39 268 0.0 0.0 0.00 0.00 0.00 88 1028.5
20260503080703 39 268 0.0 0.0 0.00 0.00 0.00 88 1011.8
20260503080335 39 268 0.0 0.0 0.00 0.00 0.00 88 1028.5
20260503080203 39 268 0.0 0.0 0.00 0.00 0.00 87 1011.5
20260503072811 39 303 0.0 0.0 0.00 0.00 0.00 86 1027.9
20260503072704 39 303 0.0 0.0 0.00 0.00 0.00 86 1011.4
20260503072308 40 303 0.0 0.0 0.00 0.00 0.00 85 1028.2
20260503072203 40 303 0.0 0.0 0.00 0.00 0.00 84 1011.3
20260503071803 41 303 0.0 0.0 0.00 0.00 0.00 83 1028.1
20260503071704 41 303 0.0 1.0 0.00 0.00 0.00 82 1011.2
20260503071256 41 303 0.0 2.0 0.00 0.00 0.00 81 1028.0
20260503071203 41 296 0.0 7.0 0.00 0.00 0.00 81 1011.2
20260503070752 41 315 0.0 7.0 0.00 0.00 0.00 81 1027.9
20260503070704 41 312 0.0 3.0 0.00 0.00 0.00 81 1011.0
20260503070250 41 317 0.0 0.0 0.00 0.00 0.00 81 1027.8
20260503070204 41 321 0.0 5.0 0.00 0.00 0.00 82 1011.2
20260503060209 42 262 0.0 0.0 0.00 0.00 0.00 79 1028.2
20260503060204 42 262 0.0 0.0 0.00 0.00 0.00 79 1011.5
20260503054704 43 273 0.0 0.0 0.00 0.00 0.00 78 1011.6
20260503054656 43 273 0.0 0.0 0.00 0.00 0.00 78 1028.3
20260503054204 43 314 0.0 1.0 0.00 0.00 0.00 77 1011.8
20260503054153 43 314 0.0 0.0 0.00 0.00 0.00 77 1028.3
20260503053704 43 290 0.0 1.0 0.00 0.00 0.00 77 1011.7
20260503053651 43 320 0.0 2.0 0.00 0.00 0.00 77 1028.5
20260503053204 43 303 0.0 5.0 0.00 0.00 0.00 76 1011.6
20260503053150 43 285 0.0 0.0 0.00 0.00 0.00 76 1028.4
20260503052704 44 330 1.0 5.0 0.00 0.00 0.00 76 1011.6
20260503052645 44 335 4.0 5.0 0.00 0.00 0.00 76 1028.2
20260503052204 44 297 0.0 1.0 0.00 0.00 0.00 75 1011.7
20260503052142 44 297 0.0 0.0 0.00 0.00 0.00 76 1028.2
20260503051704 44 309 1.0 8.0 0.00 0.00 0.00 75 1011.8
20260503051637 44 307 0.0 2.0 0.00 0.00 0.00 75 1028.5
20260503051204 44 312 0.0 5.0 0.00 0.00 0.00 75 1011.6
20260503051135 44 322 0.0 5.0 0.00 0.00 0.00 75 1028.5
20260503050704 44 326 1.0 8.0 0.00 0.00 0.00 74 1011.9
20260503050632 44 329 3.0 5.0 0.00 0.00 0.00 74 1028.6
20260503050203 44 306 0.0 7.0 0.00 0.00 0.00 75 1011.9
20260503050128 44 306 0.0 3.0 0.00 0.00 0.00 75 1028.6
20260503045703 44 314 0.0 7.0 0.00 0.00 0.00 75 1011.8
20260503045626 44 315 0.0 7.0 0.00 0.00 0.00 75 1028.5
20260503045123 44 318 2.0 5.0 0.00 0.00 0.00 74 1028.7
20260503044620 44 303 0.0 2.0 0.00 0.00 0.00 74 1028.3
20260503044117 44 305 0.0 0.0 0.00 0.00 0.00 74 1028.7
20260503043704 45 302 0.0 7.0 0.00 0.00 0.00 73 1012.1
20260503043614 45 299 0.0 5.0 0.00 0.00 0.00 73 1028.7
20260503043204 45 323 1.0 9.0 0.00 0.00 0.00 72 1012.1
20260503043110 45 327 1.0 7.0 0.00 0.00 0.00 72 1028.7
20260503042704 45 299 0.0 5.0 0.00 0.00 0.00 72 1012.3
20260503042607 45 299 0.0 0.0 0.00 0.00 0.00 72 1029.0
20260503042204 45 313 1.0 7.0 0.00 0.00 0.00 72 1012.2
20260503042103 45 313 0.0 5.0 0.00 0.00 0.00 72 1028.9
20260503041704 45 300 0.0 0.0 0.00 0.00 0.00 72 1012.5
20260503041559 46 300 0.0 0.0 0.00 0.00 0.00 72 1029.2
20260503041206 46 295 0.0 5.0 0.00 0.00 0.00 71 1012.5
20260503041058 46 295 0.0 3.0 0.00 0.00 0.00 71 1029.2
20260503040707 46 265 1.0 3.0 0.00 0.00 0.00 71 1012.6
20260503040555 46 264 0.0 3.0 0.00 0.00 0.00 71 1029.3
20260503040052 46 310 0.0 0.0 0.00 0.00 0.00 70 1029.0
20260503035548 47 308 0.0 0.0 0.00 0.00 0.00 70 1029.1
20260503035046 47 318 0.0 3.0 0.00 0.00 0.00 70 1029.2
20260503034543 47 311 0.0 2.0 0.00 0.00 0.00 70 1029.3
20260503034203 46 314 0.0 1.0 0.00 0.00 0.00 70 1012.4
20260503034041 46 314 0.0 2.0 0.00 0.00 0.00 70 1028.9
20260503033702 46 312 0.0 0.0 0.00 0.00 0.00 70 1012.5
20260503033538 46 312 0.0 0.0 0.00 0.00 0.00 70 1029.2
20260503033203 46 311 0.0 0.0 0.00 0.00 0.00 69 1012.5
20260503033036 46 311 0.0 0.0 0.00 0.00 0.00 69 1029.1
20260503032703 46 311 0.0 0.0 0.00 0.00 0.00 69 1012.6
20260503032534 46 311 0.0 0.0 0.00 0.00 0.00 69 1029.3
20260503032203 46 311 0.0 0.0 0.00 0.00 0.00 69 1012.7
20260503032031 46 311 0.0 0.0 0.00 0.00 0.00 69 1029.4
20260503031703 46 292 0.0 0.0 0.00 0.00 0.00 68 1012.5
20260503031529 46 292 0.0 0.0 0.00 0.00 0.00 68 1029.1
20260503031026 46 304 0.0 0.0 0.00 0.00 0.00 68 1029.2
20260503030703 47 304 0.0 1.0 0.00 0.00 0.00 67 1012.6
20260503030522 47 304 0.0 0.0 0.00 0.00 0.00 66 1029.3
20260503030202 47 295 0.0 0.0 0.00 0.00 0.00 66 1012.7
20260503030019 47 295 0.0 0.0 0.00 0.00 0.00 66 1029.2
20260503025515 47 298 0.0 0.0 0.00 0.00 0.00 66 1029.3
20260503025203 47 314 0.0 1.0 0.00 0.00 0.00 65 1012.6
20260503025014 47 314 0.0 2.0 0.00 0.00 0.00 64 1029.2
20260503024703 47 301 0.0 1.0 0.00 0.00 0.00 65 1012.4
20260503024509 48 306 0.0 0.0 0.00 0.00 0.00 64 1029.2
20260503024203 48 306 0.0 1.0 0.00 0.00 0.00 63 1012.5
20260503024007 48 306 0.0 0.0 0.00 0.00 0.00 64 1029.3
20260503023703 48 305 0.0 1.0 0.00 0.00 0.00 63 1012.5
20260503023503 48 295 0.0 0.0 0.00 0.00 0.00 64 1029.1
20260503023001 48 295 0.0 3.0 0.00 0.00 0.00 62 1029.3
20260503022704 48 314 0.0 3.0 0.00 0.00 0.00 62 1012.6
20260503022456 48 314 0.0 3.0 0.00 0.00 0.00 61 1029.2
20260503022203 49 314 0.0 0.0 0.00 0.00 0.00 62 1012.4
20260503021951 49 314 0.0 0.0 0.00 0.00 0.00 62 1029.3
20260503021703 49 310 0.0 5.0 0.00 0.00 0.00 61 1012.7
20260503021448 49 310 0.0 5.0 0.00 0.00 0.00 60 1029.3
20260503021204 49 304 0.0 3.0 0.00 0.00 0.00 61 1012.5
20260503020946 49 299 0.0 2.0 0.00 0.00 0.00 61 1029.2
20260503020702 49 306 0.0 3.0 0.00 0.00 0.00 62 1012.5
20260503020443 49 313 0.0 0.0 0.00 0.00 0.00 60 1029.3
20260503020203 49 291 1.0 7.0 0.00 0.00 0.00 60 1012.6
20260503015939 49 320 0.0 5.0 0.00 0.00 0.00 60 1029.3
20260503015703 49 333 1.0 5.0 0.00 0.00 0.00 60 1012.4
20260503015436 49 330 0.0 2.0 0.00 0.00 0.00 60 1029.1
20260503015203 49 313 0.0 5.0 0.00 0.00 0.00 60 1012.4
20260503014932 49 302 0.0 5.0 0.00 0.00 0.00 60 1029.0
20260503014702 49 299 1.0 9.0 0.00 0.00 0.00 60 1012.4
20260503014429 48 316 0.0 10.0 0.00 0.00 0.00 59 1029.1
20260503013928 48 296 0.0 2.0 0.00 0.00 0.00 61 1029.0
20260503013703 48 317 0.0 3.0 0.00 0.00 0.00 60 1012.4
20260503013425 48 312 0.0 0.0 0.00 0.00 0.00 60 1029.1
20260503013203 48 317 0.0 1.0 0.00 0.00 0.00 61 1012.3
20260503012921 48 308 0.0 0.0 0.00 0.00 0.00 61 1029.0
20260503012414 48 311 0.0 0.0 0.00 0.00 0.00 60 1028.8
20260503011909 48 314 0.0 0.0 0.00 0.00 0.00 61 1028.8
20260503011703 48 309 0.0 0.0 0.00 0.00 0.00 61 1012.1
20260503011406 48 309 0.0 0.0 0.00 0.00 0.00 60 1028.8
20260503011204 49 309 1.0 5.0 0.00 0.00 0.00 60 1012.3
20260503010903 48 310 1.0 3.0 0.00 0.00 0.00 60 1028.9
20260503010703 49 292 0.0 0.0 0.00 0.00 0.00 60 1012.3
20260503010359 49 292 0.0 0.0 0.00 0.00 0.00 59 1028.9
20260503010203 49 291 0.0 0.0 0.00 0.00 0.00 59 1012.2
20260503005856 49 292 0.0 0.0 0.00 0.00 0.00 58 1028.9
20260503005703 49 294 0.0 0.0 0.00 0.00 0.00 58 1012.2
20260503005354 49 322 0.0 0.0 0.00 0.00 0.00 58 1028.7
20260503004850 50 289 0.0 2.0 0.00 0.00 0.00 58 1028.5
20260503004703 50 294 1.0 3.0 0.00 0.00 0.00 57 1012.0
20260503004348 50 300 0.0 2.0 0.00 0.00 0.00 58 1028.5
20260503004203 50 307 0.0 0.0 0.00 0.00 0.00 57 1011.9
20260503003846 50 307 0.0 0.0 0.00 0.00 0.00 57 1028.6
20260503003704 50 297 0.0 5.0 0.00 0.00 0.00 56 1011.7
20260503003342 50 299 3.0 5.0 0.00 0.00 0.00 56 1028.6
20260503003204 50 300 0.0 1.0 0.00 0.00 0.00 58 1011.8
20260503002839 50 312 0.0 0.0 0.00 0.00 0.00 57 1028.4
20260503002703 50 305 0.0 3.0 0.00 0.00 0.00 55 1011.5
20260503002337 50 295 0.0 0.0 0.00 0.00 0.00 56 1028.4
20260503002203 50 308 0.0 5.0 0.00 0.00 0.00 54 1011.8
20260503001832 50 308 0.0 5.0 0.00 0.00 0.00 55 1028.4
20260503001703 50 308 0.0 3.0 0.00 0.00 0.00 55 1011.7
20260503001323 50 289 0.0 0.0 0.00 0.00 0.00 55 1028.3
20260503001203 50 299 0.0 1.0 0.00 0.00 0.00 55 1011.8
20260503000821 50 331 0.0 2.0 0.00 0.00 0.00 55 1028.4
20260503000704 50 294 0.0 0.0 0.00 0.00 0.00 55 1011.8
20260503000319 50 316 0.0 0.0 0.00 0.00 0.00 56 1028.3
20260502235815 50 294 0.0 0.0 0.00 0.00 0.00 54 1028.4
20260502235703 51 294 0.0 0.0 0.00 0.00 0.00 56 1011.5
20260502235312 51 294 0.0 0.0 0.00 0.00 0.00 55 1028.4
20260502235203 51 294 0.0 0.0 0.00 0.00 0.00 54 1011.5
20260502234809 51 294 0.0 0.0 0.00 0.00 0.00 55 1028.5
20260502234703 51 294 0.0 3.0 0.00 0.00 0.00 54 1011.5
20260502234306 52 294 0.0 3.0 0.00 0.00 0.00 54 1028.1
20260502234204 52 308 0.0 5.0 0.00 0.00 0.00 53 1011.3
20260502233802 52 350 1.0 3.0 0.00 0.00 0.00 52 1028.1
20260502233703 52 309 0.0 3.0 0.00 0.00 0.00 53 1011.3
20260502233259 52 304 0.0 2.0 0.00 0.00 0.00 52 1028.1
20260502233203 52 297 1.0 7.0 0.00 0.00 0.00 53 1011.3
20260502232755 52 302 1.0 2.0 0.00 0.00 0.00 51 1027.9
20260502232703 52 308 0.0 5.0 0.00 0.00 0.00 52 1011.2
20260502232252 52 291 2.0 5.0 0.00 0.00 0.00 51 1027.9
20260502232203 52 288 0.0 3.0 0.00 0.00 0.00 52 1011.3
20260502231749 53 299 0.0 0.0 0.00 0.00 0.00 53 1028.0
20260502231703 53 300 0.0 3.0 0.00 0.00 0.00 52 1011.4
20260502231246 53 312 2.0 3.0 0.00 0.00 0.00 51 1028.0
20260502231204 53 308 0.0 3.0 0.00 0.00 0.00 51 1011.4
20260502230745 53 345 0.0 3.0 0.00 0.00 0.00 50 1027.9
20260502230243 53 309 0.0 5.0 0.00 0.00 0.00 49 1028.0
20260502225739 53 300 0.0 3.0 0.00 0.00 0.00 48 1028.0
20260502225703 53 300 1.0 7.0 0.00 0.00 0.00 48 1011.3
20260502225236 53 315 0.0 5.0 0.00 0.00 0.00 50 1028.1
20260502225203 53 304 1.0 5.0 0.00 0.00 0.00 48 1011.4
20260502224732 53 298 0.0 3.0 0.00 0.00 0.00 48 1028.2
20260502224229 54 318 1.0 7.0 0.00 0.00 0.00 46 1028.2
20260502224203 54 329 1.0 7.0 0.00 0.00 0.00 47 1011.4
20260502223726 55 302 3.0 7.0 0.00 0.00 0.00 46 1028.1
20260502223704 55 312 1.0 8.0 0.00 0.00 0.00 48 1011.4
20260502223224 55 292 0.0 7.0 0.00 0.00 0.00 47 1028.1
20260502223204 55 314 2.0 8.0 0.00 0.00 0.00 46 1011.4
20260502222722 55 327 1.0 7.0 0.00 0.00 0.00 45 1028.1
20260502222703 55 327 1.0 7.0 0.00 0.00 0.00 45 1011.3
20260502222218 55 317 5.0 7.0 0.00 0.00 0.00 46 1027.9
20260502222204 55 309 1.0 8.0 0.00 0.00 0.00 47 1011.1
20260502221714 55 306 3.0 8.0 0.00 0.00 0.00 46 1027.9
20260502221704 55 349 2.0 8.0 0.00 0.00 0.00 47 1011.4
20260502221210 55 314 0.0 0.0 0.00 0.00 0.00 48 1028.1
20260502221203 55 309 0.0 1.0 0.00 0.00 0.00 49 1011.3
20260502220706 55 328 0.0 0.0 0.00 0.00 0.00 51 1027.8
20260502220703 55 327 0.0 1.0 0.00 0.00 0.00 50 1011.3
20260502220203 55 328 0.0 2.0 0.00 0.00 0.00 49 1027.9
20260502215700 55 304 0.0 0.0 0.00 0.00 0.00 52 1028.1
20260502215203 55 275 0.0 8.0 0.00 0.00 0.00 48 1011.2
20260502215157 55 289 0.0 3.0 0.00 0.00 0.00 49 1028.2
20260502214703 55 322 1.0 7.0 0.00 0.00 0.00 49 1011.3
20260502214655 55 325 2.0 3.0 0.00 0.00 0.00 48 1028.1
20260502214203 55 318 1.0 7.0 0.00 0.00 0.00 48 1011.2
20260502214152 55 328 3.0 7.0 0.00 0.00 0.00 47 1028.0
20260502213703 55 295 2.0 9.0 0.00 0.00 0.00 46 1011.1
20260502213649 55 280 0.0 7.0 0.00 0.00 0.00 45 1027.6
20260502213146 55 5 2.0 3.0 0.00 0.00 0.00 48 1027.8
20260502212704 55 316 0.0 9.0 0.00 0.00 0.00 48 1011.1
20260502212644 55 312 0.0 0.0 0.00 0.00 0.00 49 1027.8
20260502212142 55 320 2.0 7.0 0.00 0.00 0.00 46 1027.9
20260502211704 55 5 3.0 12.0 0.00 0.00 0.00 47 1011.0
20260502211637 55 316 0.0 5.0 0.00 0.00 0.00 50 1027.5
20260502211203 56 340 0.0 5.0 0.00 0.00 0.00 50 1011.0
20260502211130 56 307 0.0 5.0 0.00 0.00 0.00 47 1027.7
20260502210703 55 273 0.0 8.0 0.00 0.00 0.00 52 1010.9
20260502210627 55 273 0.0 2.0 0.00 0.00 0.00 53 1027.5
20260502210124 55 355 2.0 8.0 0.00 0.00 0.00 47 1027.4
20260502205620 56 300 3.0 8.0 0.00 0.00 0.00 47 1027.6
20260502205204 56 244 0.0 8.0 0.00 0.00 0.00 51 1010.6
20260502205112 57 243 0.0 0.0 0.00 0.00 0.00 51 1027.3
20260502204704 56 273 3.0 9.0 0.00 0.00 0.00 48 1010.8
20260502204608 56 271 3.0 8.0 0.00 0.00 0.00 48 1027.5
20260502204204 57 351 4.0 12.0 0.00 0.00 0.00 47 1010.7
20260502204106 57 353 5.0 10.0 0.00 0.00 0.00 46 1027.4